EZY523 EGKK-EDDM

Flight info

Callsign EZY523
Flight time 1h 33m
Altitude 35000
Route EGKK/26L N0356F230 MIMF1M MIMFO Y312 DVR/N0443F390 UL9 KONAN UL607 KOK DCT MATUG DCT MOVUM T109 HAREM/N0358F230 T104 ROKIL ROKI1B EDDM/26L
Aircraft A20N/M-A1B2C2D2L1O2S2/S

Departure

Time 2026-05-04 09:41
Airport London Gatwick Airport (EGKK)

Arrival

Time 2026-05-04 11:14
Airport Munich Airport (EDDM)
Time Latitude Longitude Altitude Speed Heading
2026-05-04 08:47 51.15660 -0.17699 204 ft 0 kts 167°
2026-05-04 09:10 51.15672 -0.17703 215 ft 0 kts 167°
2026-05-04 09:11 51.15675 -0.17705 214 ft 0 kts 169°
2026-05-04 09:11 51.15688 -0.17708 209 ft 0 kts 168°
2026-05-04 09:12 51.15715 -0.17717 208 ft 4 kts 192°
2026-05-04 09:12 51.15738 -0.17693 212 ft 4 kts 256°
2026-05-04 09:14 51.15741 -0.17672 210 ft 0 kts 260°
2026-05-04 09:26 51.15717 -0.17837 212 ft 10 kts 257°
2026-05-04 09:26 51.15717 -0.17842 213 ft 0 kts 257°
2026-05-04 09:31 51.15716 -0.17845 213 ft 4 kts 257°
2026-05-04 09:31 51.15695 -0.17995 206 ft 11 kts 257°
2026-05-04 09:32 51.15684 -0.18067 211 ft 9 kts 257°
2026-05-04 09:32 51.15670 -0.18174 207 ft 6 kts 258°
2026-05-04 09:34 51.15258 -0.18235 204 ft 7 kts 167°
2026-05-04 09:34 51.15190 -0.18276 212 ft 13 kts 256°
2026-05-04 09:34 51.15174 -0.18435 204 ft 16 kts 255°
2026-05-04 09:34 51.15156 -0.18555 212 ft 0 kts 257°
2026-05-04 09:35 51.15152 -0.18579 208 ft 3 kts 257°
2026-05-04 09:35 51.15137 -0.18686 206 ft 18 kts 258°
2026-05-04 09:35 51.15104 -0.18921 207 ft 24 kts 258°
2026-05-04 09:35 51.15068 -0.19185 207 ft 25 kts 258°
2026-05-04 09:37 51.14822 -0.20967 210 ft 1 kts 257°
2026-05-04 09:37 51.14819 -0.20991 207 ft 3 kts 257°
2026-05-04 09:38 51.14805 -0.21090 204 ft 20 kts 257°
2026-05-04 09:38 51.14773 -0.21260 204 ft 17 kts 258°
2026-05-04 09:38 51.14725 -0.21401 213 ft 0 kts 192°
2026-05-04 09:39 51.14675 -0.21383 208 ft 13 kts 146°
2026-05-04 09:39 51.14624 -0.21332 209 ft 6 kts 166°
2026-05-04 09:39 51.14607 -0.21326 208 ft 7 kts 166°
2026-05-04 09:39 51.14574 -0.21304 208 ft 1 kts 141°
2026-05-04 09:40 51.14531 -0.21222 213 ft 29 kts 110°
2026-05-04 09:40 51.14616 -0.20521 216 ft 100 kts 78°
2026-05-04 09:40 51.14808 -0.19122 210 ft 156 kts 77°
2026-05-04 09:40 51.15047 -0.17245 553 ft 172 kts 78°
2026-05-04 09:41 51.15253 -0.15484 1666 ft 154 kts 79°
2026-05-04 09:42 51.16679 -0.01315 5886 ft 236 kts 83°
2026-05-04 09:43 51.16810 0.01440 6182 ft 266 kts 89°
2026-05-04 09:43 51.16810 0.04645 5883 ft 312 kts 92°
2026-05-04 09:43 51.16732 0.08230 6338 ft 328 kts 93°
2026-05-04 09:43 51.16646 0.11800 7576 ft 316 kts 93°
2026-05-04 09:44 51.16567 0.15220 8909 ft 303 kts 93°
2026-05-04 09:44 51.16525 0.18518 10154 ft 294 kts 91°
2026-05-04 09:44 51.16532 0.21799 10961 ft 298 kts 90°
2026-05-04 09:46 51.17467 0.45594 16045 ft 326 kts 57°
2026-05-04 09:46 51.18454 0.47478 16457 ft 330 kts 41°
2026-05-04 09:46 51.20410 0.49367 17087 ft 333 kts 18°
2026-05-04 09:47 51.22691 0.50045 17652 ft 339 kts
2026-05-04 09:47 51.25023 0.51049 17830 ft 359 kts 26°
2026-05-04 09:49 51.24957 0.75765 21223 ft 389 kts 142°
2026-05-04 09:49 51.22990 0.78779 21793 ft 395 kts 131°
2026-05-04 09:49 51.21502 0.82507 22339 ft 403 kts 117°
2026-05-04 09:51 51.18436 1.09782 25121 ft 428 kts 100°
2026-05-04 09:51 51.18057 1.14502 25512 ft 430 kts 101°
2026-05-04 09:51 51.17667 1.19251 25850 ft 433 kts 101°
2026-05-04 09:51 51.17275 1.23967 26191 ft 435 kts 101°
2026-05-04 09:52 51.16874 1.28753 26519 ft 437 kts 101°
2026-05-04 09:52 51.16469 1.33563 26849 ft 439 kts 101°
2026-05-04 09:52 51.16074 1.38400 27169 ft 442 kts 100°
2026-05-04 09:52 51.15810 1.43307 27486 ft 445 kts 98°
2026-05-04 09:53 51.15609 1.48241 27800 ft 447 kts 97°
2026-05-04 09:53 51.15409 1.53185 28103 ft 449 kts 98°
2026-05-04 09:53 51.15191 1.58166 28409 ft 450 kts 98°
2026-05-04 09:53 51.14958 1.63139 28683 ft 452 kts 98°
2026-05-04 09:54 51.14714 1.68152 28968 ft 454 kts 99°
2026-05-04 09:54 51.14464 1.73177 29224 ft 455 kts 99°
2026-05-04 09:54 51.14213 1.78150 29482 ft 457 kts 99°
2026-05-04 09:54 51.13956 1.83199 29748 ft 458 kts 99°
2026-05-04 09:55 51.13696 1.88264 30003 ft 460 kts 99°
2026-05-04 09:55 51.13433 1.93352 30222 ft 462 kts 99°
2026-05-04 09:55 51.13167 1.98459 30448 ft 464 kts 99°
2026-05-04 09:55 51.12898 2.03579 30676 ft 465 kts 99°
2026-05-04 09:56 51.12625 2.08721 30869 ft 467 kts 99°
2026-05-04 09:56 51.12348 2.13888 31088 ft 468 kts 100°
2026-05-04 09:56 51.12069 2.19057 31346 ft 469 kts 100°
2026-05-04 09:56 51.11789 2.24218 31619 ft 468 kts 100°
2026-05-04 09:57 51.11506 2.29382 31889 ft 468 kts 100°
2026-05-04 09:57 51.11221 2.34540 32143 ft 468 kts 100°
2026-05-04 09:57 51.10933 2.39705 32391 ft 468 kts 100°
2026-05-04 09:57 51.10643 2.44871 32647 ft 468 kts 100°
2026-05-04 09:58 51.10351 2.50027 32895 ft 468 kts 101°
2026-05-04 09:58 51.10057 2.55172 33133 ft 468 kts 101°
2026-05-04 09:58 51.09761 2.60322 33377 ft 467 kts 101°
2026-05-04 10:00 51.04558 2.94879 34647 ft 460 kts 110°
2026-05-04 10:00 51.03740 2.99784 34795 ft 460 kts 110°
2026-05-04 10:02 50.97890 3.34383 35233 ft 470 kts 112°
2026-05-04 10:04 50.91731 3.70069 35243 ft 485 kts 111°
2026-05-04 10:04 50.89928 3.80390 35243 ft 487 kts 111°
2026-05-04 10:05 50.88120 3.90677 35237 ft 488 kts 111°
2026-05-04 10:05 50.86287 4.01044 35251 ft 489 kts 111°
2026-05-04 10:06 50.84441 4.11428 35257 ft 490 kts 111°
2026-05-04 10:06 50.82587 4.21794 35264 ft 490 kts 111°
2026-05-04 10:08 50.76006 4.58118 35268 ft 492 kts 111°
2026-05-04 10:08 50.74111 4.68441 35266 ft 492 kts 111°
2026-05-04 10:09 50.72195 4.78821 35258 ft 492 kts 111°
2026-05-04 10:09 50.70269 4.89203 35255 ft 493 kts 111°
2026-05-04 10:10 50.68335 4.99562 35256 ft 493 kts 111°
2026-05-04 10:10 50.66390 5.09928 35262 ft 493 kts 111°
2026-05-04 10:11 50.64432 5.20304 35269 ft 493 kts 111°
2026-05-04 10:11 50.62479 5.30594 35273 ft 494 kts 111°
2026-05-04 10:12 50.60490 5.41017 35281 ft 494 kts 112°
2026-05-04 10:12 50.58515 5.51314 35274 ft 494 kts 112°
2026-05-04 10:13 50.56520 5.61660 35270 ft 494 kts 112°
2026-05-04 10:13 50.54512 5.72014 35262 ft 495 kts 112°
2026-05-04 10:14 50.52494 5.82365 35255 ft 495 kts 112°
2026-05-04 10:16 50.44346 6.23600 35232 ft 494 kts 112°
2026-05-04 10:16 50.42290 6.33891 35232 ft 494 kts 112°
2026-05-04 10:17 50.40136 6.44111 35231 ft 493 kts 112°
2026-05-04 10:19 50.31711 6.84930 35264 ft 493 kts 113°
2026-05-04 10:19 50.29565 6.95117 35268 ft 493 kts 113°
2026-05-04 10:20 50.27414 7.05277 35271 ft 492 kts 113°
2026-05-04 10:20 50.25250 7.15448 35276 ft 493 kts 113°
2026-05-04 10:21 50.23077 7.25605 35274 ft 493 kts 113°
2026-05-04 10:21 50.20895 7.35758 35268 ft 493 kts 113°
2026-05-04 10:22 50.17607 7.50969 35259 ft 493 kts 113°
2026-05-04 10:23 50.15407 7.61080 35254 ft 493 kts 113°
2026-05-04 10:25 50.06524 8.01408 35275 ft 492 kts 113°
2026-05-04 10:25 50.04280 8.11475 35285 ft 492 kts 113°
2026-05-04 10:26 50.02026 8.21542 35290 ft 492 kts 113°
2026-05-04 10:26 49.99765 8.31582 35290 ft 492 kts 113°
2026-05-04 10:27 49.97497 8.41612 35290 ft 492 kts 113°
2026-05-04 10:27 49.95148 8.51572 35275 ft 489 kts 118°
2026-05-04 10:28 49.91979 8.60830 35274 ft 485 kts 124°
2026-05-04 10:28 49.88620 8.69923 35272 ft 485 kts 124°
2026-05-04 10:29 49.85287 8.78945 35271 ft 485 kts 124°
2026-05-04 10:29 49.81898 8.88061 35269 ft 485 kts 124°
2026-05-04 10:30 49.78545 8.97048 35266 ft 485 kts 124°
2026-05-04 10:30 49.75167 9.06090 35273 ft 486 kts 124°
2026-05-04 10:31 49.71780 9.15123 35252 ft 486 kts 124°
2026-05-04 10:32 49.59962 9.44806 35042 ft 483 kts 135°
2026-05-04 10:33 49.55512 9.52567 34982 ft 484 kts 135°
2026-05-04 10:33 49.51064 9.60347 34917 ft 484 kts 135°
2026-05-04 10:34 49.46631 9.68091 35162 ft 469 kts 135°
2026-05-04 10:34 49.44539 9.71769 35453 ft 445 kts 135°
2026-05-04 10:34 49.42558 9.75277 35403 ft 430 kts 135°
2026-05-04 10:35 49.40605 9.78757 34787 ft 430 kts 135°
2026-05-04 10:35 49.38649 9.82241 34179 ft 431 kts 135°
2026-05-04 10:35 49.36685 9.85714 33512 ft 431 kts 135°
2026-05-04 10:35 49.34711 9.89180 32846 ft 431 kts 135°
2026-05-04 10:36 49.32729 9.92630 32198 ft 430 kts 135°
2026-05-04 10:36 49.30747 9.96057 31580 ft 430 kts 135°
2026-05-04 10:36 49.28758 9.99470 30976 ft 429 kts 135°
2026-05-04 10:36 49.26783 10.02872 30455 ft 426 kts 134°
2026-05-04 10:37 49.24857 10.06339 29672 ft 429 kts 133°
2026-05-04 10:37 49.22917 10.09807 29033 ft 427 kts 134°
2026-05-04 10:37 49.20972 10.13223 28400 ft 426 kts 134°
2026-05-04 10:37 49.19039 10.16563 27786 ft 423 kts 135°
2026-05-04 10:39 49.07293 10.35835 26236 ft 376 kts 137°
2026-05-04 10:39 49.05500 10.38629 26200 ft 361 kts 138°
2026-05-04 10:39 49.03765 10.41286 26146 ft 347 kts 139°
2026-05-04 10:40 49.02082 10.43821 26066 ft 333 kts 139°
2026-05-04 10:40 49.00426 10.46295 25661 ft 340 kts 139°
2026-05-04 10:40 48.98697 10.48919 25410 ft 358 kts 138°
2026-05-04 10:40 48.96915 10.51685 25323 ft 375 kts 137°
2026-05-04 10:41 48.95059 10.54613 25309 ft 391 kts 137°
2026-05-04 10:41 48.93146 10.57653 25308 ft 405 kts 136°
2026-05-04 10:41 48.91163 10.60810 25308 ft 420 kts 136°
2026-05-04 10:41 48.89115 10.64067 25308 ft 434 kts 136°
2026-05-04 10:42 48.86998 10.67429 25304 ft 447 kts 136°
2026-05-04 10:42 48.84813 10.70894 25306 ft 460 kts 136°
2026-05-04 10:42 48.82578 10.74431 25301 ft 470 kts 136°
2026-05-04 10:42 48.80288 10.78049 25299 ft 479 kts 136°
2026-05-04 10:43 48.77954 10.81719 25293 ft 488 kts 136°
2026-05-04 10:44 48.61263 11.07784 25277 ft 461 kts 136°
2026-05-04 10:45 48.59063 11.11155 25273 ft 441 kts 139°
2026-05-04 10:45 48.56780 11.14086 25271 ft 421 kts 146°
2026-05-04 10:45 48.54429 11.16544 25275 ft 402 kts 149°
2026-05-04 10:45 48.52154 11.18841 25275 ft 386 kts 148°
2026-05-04 10:46 48.49965 11.21027 25273 ft 369 kts 150°
2026-05-04 10:46 48.47821 11.22997 25275 ft 353 kts 152°
2026-05-04 10:46 48.45755 11.24840 25275 ft 337 kts 152°
2026-05-04 10:46 48.43778 11.26593 25274 ft 321 kts 152°
2026-05-04 10:47 48.41882 11.28270 25070 ft 314 kts 152°
2026-05-04 10:47 48.39997 11.29933 24530 ft 316 kts 152°
2026-05-04 10:47 48.38065 11.31630 23853 ft 324 kts 152°
2026-05-04 10:47 48.36132 11.33329 23400 ft 322 kts 151°
2026-05-04 10:49 48.26572 11.51244 19571 ft 315 kts 125°
2026-05-04 10:49 48.25374 11.54077 18797 ft 318 kts 125°
2026-05-04 10:50 48.24209 11.56898 18014 ft 318 kts 123°
2026-05-04 10:51 48.17577 11.74633 15514 ft 238 kts 122°
2026-05-04 10:52 48.16794 11.76785 15242 ft 232 kts 122°
2026-05-04 10:52 48.16102 11.78930 15028 ft 224 kts 111°
2026-05-04 10:52 48.15981 11.81150 14872 ft 216 kts 74°
2026-05-04 10:54 48.23475 11.96011 11805 ft 257 kts 57°
2026-05-04 10:54 48.24465 11.98157 11689 ft 243 kts 58°
2026-05-04 10:56 48.32381 12.06645 10565 ft 191 kts
2026-05-04 10:56 48.33725 12.06872 10191 ft 197 kts
2026-05-04 10:56 48.35095 12.07036 9840 ft 196 kts
2026-05-04 10:57 48.36446 12.07111 9505 ft 194 kts
2026-05-04 10:57 48.37719 12.06964 9425 ft 176 kts 352°
2026-05-04 10:57 48.38968 12.06734 9297 ft 182 kts 352°
2026-05-04 10:57 48.40274 12.06499 9239 ft 190 kts 353°
2026-05-04 10:58 48.41522 12.06165 9181 ft 185 kts 338°
2026-05-04 10:58 48.42713 12.05144 9486 ft 197 kts 318°
2026-05-04 10:58 48.43563 12.03758 9601 ft 171 kts 297°
2026-05-04 10:58 48.44056 12.02223 9418 ft 161 kts 290°
2026-05-04 10:59 48.44560 12.00588 8749 ft 184 kts 291°
2026-05-04 10:59 48.45096 11.98695 8123 ft 203 kts 290°
2026-05-04 10:59 48.45550 11.96710 7979 ft 192 kts 279°
2026-05-04 10:59 48.45689 11.94839 8050 ft 169 kts 265°
2026-05-04 11:00 48.45629 11.93149 7949 ft 156 kts 260°
2026-05-04 11:01 48.44464 11.81873 6586 ft 157 kts 268°
2026-05-04 11:02 48.44498 11.80170 6526 ft 178 kts 269°
2026-05-04 11:02 48.44545 11.78250 6316 ft 186 kts 269°
2026-05-04 11:05 48.43445 11.53062 6023 ft 175 kts 262°
2026-05-04 11:06 48.43307 11.51254 6090 ft 174 kts 263°
2026-05-04 11:06 48.43193 11.49513 6320 ft 159 kts 262°
2026-05-04 11:06 48.43080 11.47828 6180 ft 160 kts 263°
2026-05-04 11:06 48.42982 11.46096 6684 ft 163 kts 262°
2026-05-04 11:08 48.37829 11.43524 6431 ft 144 kts 148°
2026-05-04 11:10 48.34710 11.53447 6274 ft 184 kts 86°
2026-05-04 11:12 48.35611 11.67052 4217 ft 193 kts 88°
2026-05-04 11:12 48.35722 11.69036 3662 ft 187 kts 84°
2026-05-04 11:12 48.35858 11.71009 2889 ft 191 kts 83°
2026-05-04 11:12 48.35993 11.72974 2319 ft 184 kts 84°
2026-05-04 11:13 48.36124 11.74799 1953 ft 168 kts 82°
2026-05-04 11:13 48.36264 11.76489 1578 ft 158 kts 83°
2026-05-04 11:13 48.36378 11.78024 1479 ft 136 kts 83°
2026-05-04 11:13 48.36461 11.79130 1469 ft 61 kts 83°
2026-05-04 11:14 48.36477 11.79333 1469 ft 11 kts 83°
2026-05-04 11:14 48.36488 11.79475 1467 ft 16 kts 84°
2026-05-04 11:14 48.36502 11.79659 1463 ft 19 kts 83°
2026-05-04 11:16 48.36390 11.80385 1459 ft 18 kts 114°
2026-05-04 11:16 48.36333 11.80498 1462 ft 9 kts 176°
2026-05-04 11:16 48.36287 11.80376 1464 ft 17 kts 267°
2026-05-04 11:17 48.36267 11.80115 1463 ft 36 kts 265°
2026-05-04 11:17 48.36253 11.79986 1465 ft 10 kts 262°
2026-05-04 11:19 48.35936 11.79506 1464 ft 0 kts 173°
2026-05-04 11:19 48.35918 11.79509 1468 ft 14 kts 172°
2026-05-04 11:19 48.35848 11.79522 1468 ft 0 kts 173°
2026-05-04 11:19 48.35831 11.79526 1461 ft 6 kts 173°
2026-05-04 11:20 48.35772 11.79537 1466 ft 12 kts 173°
2026-05-04 11:20 48.35680 11.79562 1466 ft 13 kts 143°
2026-05-04 11:20 48.35658 11.79616 1465 ft 0 kts 125°
2026-05-04 11:20 48.35656 11.79621 1465 ft 2 kts 126°
2026-05-04 11:22 48.35657 11.79714 1465 ft 0 kts 85°